Date,TemperatureHighF,TemperatureAvgF,TemperatureLowF,DewpointHighF,DewpointAvgF,DewpointLowF,HumidityHigh,HumidityAvg,HumidityLow,PressureMaxIn,PressureMinIn,WindSpeedMaxMPH,WindSpeedAvgMPH,GustSpeedMaxMPH,PrecipitationSumIn
2013-4-1,47,37,30,31,20,5,96,54,25,0.00,40.00,14,6,34,0.00
2013-4-2,41,32,27,27,24,19,95,74,49,0.00,40.00,12,7,19,0.09
2013-4-3,45,35,24,27,20,11,96,59,25,0.00,40.00,10,6,21,0.06
2013-4-4,50,40,29,23,18,12,69,43,23,0.00,40.00,12,6,22,0.00
2013-4-5,47,39,29,31,20,14,96,51,32,0.00,40.00,15,8,30,0.00
2013-4-6,44,34,26,29,22,17,96,64,39,0.00,40.00,12,6,19,0.08
2013-4-7,42,34,25,31,24,14,94,71,37,0.00,40.00,12,6,25,0.09
2013-4-8,40,34,29,29,19,10,97,58,35,0.00,40.00,16,10,31,0.01
2013-4-9,28,15,3,27,11,-2,96,86,77,0.00,40.00,14,10,26,0.01
2013-4-10,22,13,1,16,8,-4,85,79,75,0.00,40.00,11,7,18,0.10
2013-4-11,34,24,16,30,21,13,96,88,79,0.00,40.00,11,4,20,0.22
2013-4-12,43,33,24,29,21,10,96,66,28,0.00,40.00,9,5,17,0.06
2013-4-13,41,34,28,30,16,8,97,49,30,0.00,40.00,22,10,47,0.01
2013-4-14,31,23,15,25,11,2,94,62,33,0.00,40.00,14,9,28,0.13
2013-4-15,27,25,22,25,20,7,93,85,44,0.00,40.00,13,6,24,0.03
2013-4-16,37,27,18,26,22,15,92,82,64,0.00,40.00,19,12,39,0.26
2013-4-17,21,14,6,19,9,1,91,81,70,0.00,40.00,15,9,27,0.05
2013-4-18,19,10,2,10,4,-3,81,74,61,0.00,40.00,11,6,21,0.07
2013-4-19,34,21,9,20,11,3,92,66,43,0.00,40.00,10,5,17,0.03
2013-4-20,36,28,22,30,25,20,94,87,65,0.00,40.00,9,4,17,0.31
2013-4-21,44,33,21,27,21,14,94,65,34,0.00,40.00,12,7,24,0.19
2013-4-22,41,33,25,28,19,12,91,60,31,0.00,40.00,15,9,32,0.02
2013-4-23,28,20,12,21,9,1,91,64,35,0.00,40.00,14,8,23,0.02
2013-4-24,39,28,18,6,1,-4,47,32,20,0.00,40.00,10,5,19,0.02
2013-4-25,47,38,27,9,4,-4,31,24,17,0.00,40.00,12,6,24,0.00
2013-4-26,51,41,32,11,6,2,33,23,15,0.00,40.00,12,7,20,0.00
2013-4-27,55,44,34,15,9,4,32,24,18,0.00,40.00,11,6,19,0.00
2013-4-28,57,47,37,20,14,5,35,26,21,0.00,40.00,12,6,34,0.00
2013-4-29,56,48,40,23,19,14,45,33,19,0.00,40.00,13,8,29,0.00
2013-4-30,51,45,29,33,22,16,96,45,29,0.00,40.00,21,11,43,0.01